STARLINK-34041, 63844

Orbit data source: Space-Track

STARLINK-34041, 63844 is a payload satellite owned by SpaceX/Seattle (US) in LEO that was launched on Wed, 07 May 2025 UTC via an FALCON 9 launch vehicle from the Air Force Eastern Test Range (AFETR). Payload-class satellites include a variety of spacecraft equipped with specific instruments for various scientific and technological missions. These include communications satellites like Starlink; space stations such as the ISS; scientific satellites like the Hubble; Earth observation satellites from companies like Planet Labs, Umbra, and HawkEye 360; GPS; miniature CubeSats for education and research; and military/defense satellites.

Loading next visibility...
Identifier
63844, 2025-093J
Orbit
LEO
Country
Flag of USUS
Related business
Manufacturer
SpaceX/Seattle
Mission
Operational Commercial Communications
Bus & Motor
STARLINK V2MO, Unknown motor
Mass
575 kg wet, ~530 kg dry
Launch date (UTC)
2025-05-07 (7 months ago)
Launch vehicle
FALCON 9
Launch site
Air Force Eastern Test Range (AFETR)
Object type
Payload
Rocket body
Debris
Shape & HBR
Box + 2 Pan, 17.7 m
Radar Cross Section
36.964 m², Large (>1 m²)

Expand to show TLE details & history
Last TLE update: 9 hours ago

TLE from 9 hours ago
0 STARLINK-34041
1 63844U 25093J   25349.83090509  .00015836  00000-0  58359-3 0  9997
2 63844  43.0010 191.7915 0001217 254.1578 105.9139 15.27588921 35140
Epoch: 2025-12-15T19:56Z
TLE epoch observation values (Epoch: 2025-12-15T19:56:30.199Z)
Latitude
-0.00007°
Longitude
167.94177°
Altitude
483.027 km
Speed
7.626 km/s
True Right ascension
12h 47m 09s
True Declination
0° 00' 00"
Sunlit
Object was in daylight at epoch
Visualization orbit readout
Latitude
Unknown
Longitude
Unknown
Altitude
Unknown
Speed
Unknown
Apparent Right ascension
Unknown
Apparent Declination
Unknown
Sunlit
N/A
Visualization observer readout
Local Sidereal Time
03:12:33
Azimuth
Unknown
Elevation
Unknown
Doppler factor
Unknown
Orbital elements
Apogee altitude
485.803 km
Perigee altitude
484.132 km
Semi-major axis
6,863.104 km
Eccentricity
0.00012
Inclination
43.001°
RAAN
191.7915°
Arg. of periapsis
254.1578°
True anomaly
105.92731°
Mean anomaly
105.9139°
Eccentric anomaly
105.92061°
Mean motion
3.81735 °/min
Orbital period
94.31 mins
BSTAR
0.00058359
Loading maneuver chart data...
Computing Atmospheric mass density...
Loading historical data...
Loading historical data...
Loading historical data...
Loading historical data...
Loading historical data...
Loading historical data...
Loading historical data...

Documentation

Showing up to 5 results
|